• In Hungary
  • List of Countries
  • For 7 days
  • Water Temperature
  • Satellite Maps
  • Weather Map
  • News
  • Weather Widgets
  • user-avatar
    Login

    Hourly Weather Viedma

    Today, 21 July, Saturday

    Time Temperature Precipitation Wind Pressure Humidity
    00:00 +3°C° 0 mm 6 mps 756 mmHg 78%
    01:00 +3°C° 0 mm 5 mps 756 mmHg 77%
    02:00 +3°C° 0 mm 5 mps 756 mmHg 76%
    03:00 +3°C° 0 mm 5 mps 755 mmHg 73%
    04:00 +3°C° 0 mm 5 mps 755 mmHg 70%
    05:00 +4°C° 0 mm 4 mps 754 mmHg 67%
    06:00 +3°C° 0 mm 4 mps 754 mmHg 66%
    07:00 +3°C° 0 mm 4 mps 754 mmHg 65%
    08:00 +3°C° 0 mm 4 mps 754 mmHg 64%
    09:00 +5°C° 0 mm 5 mps 754 mmHg 61%
    10:00 +6°C° 0 mm 5 mps 754 mmHg 58%
    11:00 +8°C° 0 mm 5 mps 754 mmHg 54%
    12:00 +9°C° 0 mm 5 mps 753 mmHg 52%
    13:00 +11°C° 0 mm 6 mps 753 mmHg 49%
    14:00 +13°C° 0 mm 6 mps 752 mmHg 47%
    15:00 +11°C° 0 mm 6 mps 752 mmHg 48%
    16:00 +11°C° 0 mm 6 mps 752 mmHg 50%
    17:00 +10°C° 0 mm 6 mps 751 mmHg 51%
    18:00 +9°C° 0 mm 6 mps 752 mmHg 51%
    19:00 +9°C° 0 mm 5 mps 752 mmHg 51%
    20:00 +8°C° 0 mm 5 mps 752 mmHg 51%
    21:00 +8°C° 0 mm 5 mps 752 mmHg 52%
    22:00 +8°C° 0 mm 5 mps 752 mmHg 53%
    23:00 +7°C° 0 mm 5 mps 752 mmHg 54%

    Tomorrow, 22 July, Sunday

    Time Temperature Precipitation Wind Pressure Humidity
    00:00 +7°C° 0 mm 5 mps 752 mmHg 55%
    01:00 +8°C° 0 mm 6 mps 752 mmHg 56%
    02:00 +8°C° 0 mm 6 mps 752 mmHg 56%
    03:00 +7°C° 0 mm 6 mps 753 mmHg 59%
    04:00 +6°C° 0 mm 7 mps 753 mmHg 61%
    05:00 +6°C° 0 mm 7 mps 754 mmHg 63%
    06:00 +5°C° 0 mm 7 mps 755 mmHg 62%
    07:00 +5°C° 0 mm 6 mps 756 mmHg 62%
    08:00 +4°C° 0 mm 6 mps 757 mmHg 61%
    09:00 +5°C° 0 mm 6 mps 757 mmHg 56%
    10:00 +6°C° 0 mm 7 mps 758 mmHg 50%
    11:00 +9°C° 0 mm 7 mps 759 mmHg 44%
    12:00 +7°C° 0 mm 8 mps 759 mmHg 44%
    13:00 +7°C° 0 mm 8 mps 759 mmHg 44%
    14:00 +7°C° 0 mm 9 mps 760 mmHg 43%
    15:00 +6°C° 0 mm 8 mps 760 mmHg 46%
    16:00 +6°C° 0 mm 8 mps 761 mmHg 48%
    17:00 +5°C° 0 mm 7 mps 761 mmHg 51%
    18:00 +5°C° 0 mm 7 mps 762 mmHg 53%
    19:00 +4°C° 0 mm 7 mps 763 mmHg 55%
    20:00 +4°C° 0 mm 7 mps 764 mmHg 57%
    21:00 +4°C° 0 mm 7 mps 765 mmHg 56%
    22:00 +4°C° 0 mm 7 mps 765 mmHg 56%
    23:00 +4°C° 0 mm 6 mps 766 mmHg 55%

    Day after tomorrow, 23 July, Monday

    Time Temperature Precipitation Wind Pressure Humidity
    00:00 +3°C° 0 mm 6 mps 766 mmHg 55%
    01:00 +3°C° 0 mm 5 mps 767 mmHg 55%
    02:00 +3°C° 0 mm 5 mps 767 mmHg 55%
    03:00 +3°C° 0 mm 5 mps 767 mmHg 56%
    04:00 +2°C° 0 mm 5 mps 768 mmHg 56%
    05:00 +2°C° 0 mm 5 mps 768 mmHg 57%
    06:00 +2°C° 0 mm 5 mps 768 mmHg 58%
    07:00 +2°C° 0 mm 5 mps 769 mmHg 58%
    08:00 +2°C° 0 mm 5 mps 769 mmHg 59%
    09:00 +3°C° 0 mm 6 mps 769 mmHg 54%
    10:00 +5°C° 0 mm 6 mps 769 mmHg 48%
    11:00 +7°C° 0 mm 6 mps 770 mmHg 43%
    12:00 +8°C° 0 mm 6 mps 769 mmHg 41%
    13:00 +9°C° 0 mm 6 mps 769 mmHg 38%
    14:00 +10°C° 0 mm 6 mps 769 mmHg 36%
    15:00 +9°C° 0 mm 5 mps 769 mmHg 38%
    16:00 +9°C° 0 mm 5 mps 769 mmHg 41%
    17:00 +8°C° 0 mm 4 mps 769 mmHg 43%
    18:00 +7°C° 0 mm 4 mps 769 mmHg 45%
    19:00 +6°C° 0 mm 4 mps 769 mmHg 46%
    20:00 +6°C° 0 mm 4 mps 769 mmHg 47%
    21:00 +5°C° 0 mm 5 mps 769 mmHg 48%
    22:00 +5°C° 0 mm 5 mps 769 mmHg 49%
    23:00 +3°C° 0 mm 5 mps 769 mmHg 50%

    24 July, Tuesday

    Time Temperature Precipitation Wind Pressure Humidity
    00:00 +3°C° 0 mm 5 mps 769 mmHg 49%
    01:00 +3°C° 0 mm 5 mps 769 mmHg 49%
    02:00 +2°C° 0 mm 5 mps 769 mmHg 48%
    03:00 +2°C° 0 mm 6 mps 769 mmHg 48%
    04:00 +2°C° 0 mm 6 mps 769 mmHg 48%
    05:00 +2°C° 0 mm 6 mps 769 mmHg 47%
    06:00 +1°C° 0 mm 6 mps 769 mmHg 48%
    07:00 +1°C° 0 mm 6 mps 769 mmHg 49%
    08:00 +1°C° 0 mm 6 mps 769 mmHg 49%
    09:00 +3°C° 0 mm 7 mps 769 mmHg 45%
    10:00 +4°C° 0 mm 8 mps 769 mmHg 41%
    11:00 +6°C° 0 mm 9 mps 769 mmHg 37%
    12:00 +7°C° 0 mm 8 mps 769 mmHg 36%
    13:00 +7°C° 0 mm 8 mps 768 mmHg 35%
    14:00 +9°C° 0 mm 8 mps 768 mmHg 33%
    15:00 +9°C° 0 mm 8 mps 767 mmHg 36%
    16:00 +8°C° 0 mm 7 mps 767 mmHg 39%
    17:00 +7°C° 0 mm 6 mps 767 mmHg 41%
    18:00 +7°C° 0 mm 6 mps 767 mmHg 44%
    19:00 +5°C° 0 mm 7 mps 767 mmHg 46%
    20:00 +5°C° 0 mm 7 mps 767 mmHg 49%
    21:00 +5°C° 0 mm 7 mps 767 mmHg 51%
    22:00 +5°C° 0 mm 8 mps 767 mmHg 54%
    23:00 +4°C° 0 mm 8 mps 767 mmHg 56%

    25 July, Wednesday

    Time Temperature Precipitation Wind Pressure Humidity
    00:00 +4°C° 0 mm 8 mps 767 mmHg 60%
    01:00 +4°C° 0 mm 8 mps 767 mmHg 63%
    02:00 +4°C° 0 mm 8 mps 767 mmHg 66%
    03:00 +4°C° 0 mm 8 mps 766 mmHg 69%
    04:00 +2°C° 0 mm 8 mps 766 mmHg 72%
    05:00 +2°C° 0 mm 8 mps 766 mmHg 75%
    06:00 +2°C° 0 mm 8 mps 766 mmHg 77%
    07:00 +2°C° 0 mm 8 mps 766 mmHg 78%
    08:00 +2°C° 0 mm 8 mps 766 mmHg 80%
    09:00 +4°C° 0 mm 8 mps 766 mmHg 73%
    10:00 +6°C° 0 mm 9 mps 766 mmHg 67%
    11:00 +7°C° 0 mm 9 mps 766 mmHg 60%
    12:00 +9°C° 0 mm 8 mps 765 mmHg 57%
    13:00 +10°C° 0 mm 8 mps 765 mmHg 54%
    14:00 +11°C° 0 mm 8 mps 764 mmHg 51%
    15:00 +10°C° 0 mm 7 mps 764 mmHg 53%
    16:00 +10°C° 0 mm 6 mps 764 mmHg 55%
    17:00 +9°C° 0 mm 5 mps 764 mmHg 58%
    18:00 +8°C° 0 mm 5 mps 764 mmHg 60%
    19:00 +8°C° 0 mm 5 mps 764 mmHg 63%
    20:00 +7°C° 0 mm 6 mps 764 mmHg 65%
    21:00 +7°C° 0 mm 6 mps 764 mmHg 68%
    22:00 +7°C° 0 mm 6 mps 764 mmHg 72%
    23:00 +7°C° 0 mm 6 mps 764 mmHg 75%

    26 July, Thursday

    Time Temperature Precipitation Wind Pressure Humidity
    00:00 +5°C° 0 mm 6 mps 764 mmHg 79%
    01:00 +5°C° 0 mm 6 mps 764 mmHg 83%
    02:00 +5°C° 0 mm 6 mps 763 mmHg 87%
    03:00 +6°C° 0 mm 5 mps 763 mmHg 88%
    04:00 +5°C° 0 mm 5 mps 763 mmHg 90%
    05:00 +5°C° 0 mm 5 mps 763 mmHg 91%
    06:00 +5°C° 0 mm 5 mps 763 mmHg 92%
    07:00 +5°C° 0 mm 5 mps 763 mmHg 92%
    08:00 +5°C° 0 mm 5 mps 764 mmHg 93%
    09:00 +7°C° 0 mm 5 mps 764 mmHg 87%
    10:00 +8°C° 0 mm 6 mps 764 mmHg 81%
    11:00 +10°C° 0 mm 6 mps 763 mmHg 75%
    12:00 +11°C° 0 mm 6 mps 763 mmHg 72%
    13:00 +11°C° 0 mm 6 mps 762 mmHg 69%
    14:00 +13°C° 0 mm 6 mps 762 mmHg 65%
    15:00 +12°C° 0 mm 5 mps 762 mmHg 68%
    16:00 +12°C° 0 mm 4 mps 762 mmHg 70%
    17:00 +11°C° 0 mm 4 mps 762 mmHg 73%
    18:00 +11°C° 0 mm 3 mps 762 mmHg 75%
    19:00 +10°C° 0 mm 3 mps 762 mmHg 78%
    20:00 +10°C° 0 mm 3 mps 763 mmHg 80%
    21:00 +9°C° 0 mm 2 mps 763 mmHg 81%
    22:00 +9°C° 0 mm 2 mps 763 mmHg 82%
    23:00 +9°C° 0 mm 2 mps 763 mmHg 83%
    Show more